Location: San Martino di Castrozza
(46.2667°N, 11.8000°E)
Time: 06:25:24
(UTC+00:00)

DELTA 2 R/B (1) - Pass Details

Date: 23 April 2021
Orbit: 790 x 803 km, 39.6° (Epoch: 07 May)

Event Time Altitude Azimuth Distance (km) Brightness Sun altitude
Exits shadow 01:24:38 37° 150° (SSE) 1,207 4.3 -24.0°
Drops below altitude 10° 01:28:39 10° 112° (ESE) 2,352 6.2 -23.6°
Sets 01:31:14 0° 106° (ESE) 3,283 7.1 -23.3°
